Regional Weather Roundup
Issued by NWS

Home | Current Version | Previous Version | Text Only | Print | Product List | Glossary Off
Versions: 1 2 3 4 5 6 7 8 9 10 11 12 13 14 15 16 17 18 19 20 21 22 23 24 25 26 27 28 29 30 31 32 33 34 35 36 37 38 39 40 41 42 43 44 45 46 47 48 49 50

420
ASUS43 KLSX 220857
RWRMO

WEATHER SUMMARY FOR MISSOURI
NATIONAL WEATHER SERVICE SPRINGFIELD MO
400 AM CDT SUN APR 22 2018

NOTE: "FAIR" INDICATES FEW OR NO CLOUDS BELOW 12,000 FEET WITH NO
       SIGNIFICANT WEATHER AND/OR OBSTRUCTIONS TO VISIBILITY.
       CURRENT SKY AND/OR WEATHER CONDITIONS ARE NOT AVAILABLE FOR
       CHILLICOTHE AND FARMINGTON.

MOZ001>031-035>038-043-044-053-054-221000-
...NORTHERN AND WESTERN MISSOURI...

CITY           SKY/WX    TMP DP  RH WIND       PRES   REMARKS
KANSAS CTY INT CLOUDY    53  31  42 NE12      30.10F
ST JOSEPH      CLOUDY    52  31  44 NE6       30.13S
CHILLICOTHE      N/A     53  31  42 NE7       30.15F

$$
MOZ066>068-077>081-088>096-101>105-221000-
...SOUTHWEST MISSOURI...

CITY           SKY/WX    TMP DP  RH WIND       PRES   REMARKS
SPRINGFIELD    CLOUDY    54  46  74 NE8       29.96F
JOPLIN         LGT RAIN  51  50  96 NE7       29.99F

$$
MOZ032>034-039>042-045>050-055>058-069>072-221000-
...CENTRAL MISSOURI...

CITY           SKY/WX    TMP DP  RH WIND       PRES   REMARKS
COLUMBIA       NOT AVBL
JEFFERSON CITY LGT RAIN  58  33  39 E10G21    30.11S
ROLLA          CLOUDY    55  34  45 E12       30.09S
SEDALIA        CLOUDY    54  39  57 E10       30.09S
WARRENSBURG    DRIZZLE   50  37  62 N6        30.08S

$$
MOZ051-052-059>065-221000-
...EAST CENTRAL MISSOURI...

CITY           SKY/WX    TMP DP  RH WIND       PRES   REMARKS
ST LOUIS INTL  CLOUDY    55  31  39 E10       30.16S

$$
MOZ072>076-082>087-097>100-106>115-221000-
...SOUTH CENTRAL AND SOUTHEAST MISSOURI...

CITY           SKY/WX    TMP DP  RH WIND       PRES   REMARKS
CAPE GIRARDEAU LGT RAIN  56  48  74 E9        30.13R
POPLAR BLUFF   LGT RAIN  56  51  84 E9        30.09R
WEST PLAINS    CLOUDY    56  47  71 E12       30.01F

$$




USA.gov is the U.S. government's official web portal to all federal, state and local government web resources and services.